Vertical_Velocity
56 -3 -10 3 17 39 35 2 -1 1 -0 2 -0 2 2 -0 3 4 5 4 3 3 0 1 1 2 2 -1 1 4 4 3 -0 -0 -1 -1 0 0 -1 -1 -2 -1 -1
-3 3 9 11 23 -2 39 39 -5 -1 2 2 -5 -2 -6 -1 -1 3 6 4 2 -0 -1 -1 -1 1 3 4 1 1 -0 2 3 3 -1 4 3 -0 1 2 1 -1 -2
3 -1 -7 -4 7 -1 15 19 16 4 -0 -1 3 -4 -1 2 6 7 2 -3 -1 2 2 2 -0 0 0 1 0 -1 2 -0 1 -2 2 -0 4 -5 -1 -3 -1 -1 -2
-2 0 -6 -2 -5 -2 -1 5 12 -5 0 0 9 6 6 1 -2 -3 -5 1 2 -0 -0 0 0 0 1 2 1 -1 2 -3 1 1 0 -1 2 -1 4 -2 -2 -2 -2
5 -7 7 7 9 -13 4 21 8 6 5 7 1 3 7 1 2 2 3 4 1 3 3 2 1 2 1 0 2 2 1 -0 -1 3 -1 0 -0 1 -1 2 -4 -0 -2
7 1 -11 -4 3 -1 7 8 -5 4 8 6 2 3 3 2 -1 2 4 0 -0 1 3 3 2 -1 2 -0 -3 -2 3 1 -2 1 -0 1 -4 1 -2 -2 -3 -3 -1
-6 -7 -4 0 -1 -5 -7 -6 -3 1 -1 15 10 -0 -0 2 3 2 2 0 -0 4 3 -1 1 0 -0 1 -2 0 0 2 4 2 3 1 -1 0 -2 3 -0 0 -1
1 -1 -1 -1 -3 0 -6 2 -2 -4 -2 0 1 23 -2 4 2 2 -3 -4 0 2 -3 2 1 1 -0 2 -1 2 4 2 3 7 -2 0 1 3 0 4 -4 -0 2
-3 1 1 2 1 -4 -8 -4 1 -4 -4 -3 0 0 13 22 4 -1 -1 1 1 2 -3 -2 -1 -1 1 2 -1 5 4 2 -2 -4 -2 -1 1 1 0 2 5 -6 7
2 1 -1 2 3 3 3 0 2 1 -0 1 -3 -4 -6 -4 15 1 0 14 13 -1 -0 3 0 1 -2 2 1 2 -0 -4 -5 -0 -2 6 3 2 2 2 0 3 -2
-2 -5 -7 -3 1 -2 1 2 0 9 -1 3 8 2 -7 -9 -4 -5 -7 -6 -3 -1 -0 1 8 -4 -1 0 1 -1 0 2 -0 -0 2 3 2 4 3 3 3 5 3
-2 -4 -1 1 -0 2 -0 -3 -2 1 4 6 2 1 -2 8 2 4 5 4 7 4 8 -2 -0 2 8 7 2 -2 -3 -5 1 0 -3 1 3 1 1 5 5 0 3
3 7 2 -2 1 -3 -4 -1 3 -0 -4 -1 2 2 4 1 1 2 4 3 7 6 10 8 1 5 9 3 24 3 3 10 2 5 2 1 3 -0 3 3 3 4 7
1 4 6 11 9 5 3 -0 -1 -3 2 2 -1 2 -0 2 -0 -3 2 3 -0 -1 1 0 6 13 1 3 17 13 9 3 11 -0 7 6 10 4 1 -1 -1 -6 -1
-1 -1 0 2 4 5 7 9 6 1 2 1 1 2 -0 -1 2 3 2 1 -1 -0 5 0 1 0 -2 -2 3 6 -6 9 9 -1 12 9 4 10 0 1 8 -1 -1
-6 -5 1 -0 -2 -1 -0 -1 1 2 3 2 -1 -2 2 0 0 -2 -3 -1 1 2 4 1 -1 -2 3 -1 0 -1 -5 -1 17 4 3 9 3 -1 -3 0 3 4 2
2 -1 -2 -6 -5 -2 0 0 -1 -3 -2 -0 0 1 -2 5 2 -2 -1 -3 -3 -3 -4 -1 1 3 3 2 3 1 -3 0 -0 1 -7 -2 1 9 -3 0 -15 -10 -10
3 -3 1 1 -2 -5 -5 0 -0 3 -1 -1 -2 -3 -3 -1 1 2 2 4 1 2 -0 3 -2 -0 1 -1 -2 -1 -1 0 -0 -1 5 -1 5 5 0 -2 -3 3 -6
-3 5 6 5 5 -2 -4 -3 3 -2 -4 2 5 -0 -5 -3 -0 -2 -1 0 -4 -2 1 2 -3 -1 2 -1 -0 -9 1 -4 -2 -0 -4 1 3 10 14 -10 -6 -2 -3
-3 1 -3 -4 -0 3 3 2 -2 -2 -2 -4 -1 -6 -1 0 2 -0 3 1 -7 -1 -3 -1 1 -2 2 0 -1 -3 6 -4 4 -2 -5 -6 4 2 4 3 2 -3 -1
-1 -2 -4 -1 1 -3 -2 -2 1 3 3 3 2 3 1 -4 -8 0 7 2 -4 -4 -3 -2 -2 -2 1 1 -2 -5 4 9 -7 1 -0 -1 0 0 1 2 1 -4 1
4 -12 -6 -3 -4 -9 -0 2 -2 -1 -1 -1 1 -0 -2 -0 0 -5 4 -2 1 3 -1 -5 -3 -0 -3 5 -2 -3 3 1 -2 1 -2 1 -0 2 -2 2 -4 -2 -2
-4 -1 6 4 -10 -10 -9 1 -5 -3 -2 -1 -2 -2 3 -3 -1 -6 0 -1 -4 -2 6 3 -2 2 2 -4 1 -1 1 2 1 3 3 -2 1 3 -2 5 1 3 -2
-1 -5 -4 0 6 2 -3 -9 -9 -8 -10 -5 0 -0 -6 -2 -5 -3 -1 -1 2 2 -3 -2 3 3 3 -0 -2 2 -4 2 4 7 1 -3 5 -7 7 -1 3 0 3
-1 -3 -1 1 -0 2 0 1 -0 -3 -5 -9 -7 -6 -1 3 4 0 0 -2 -1 -2 -1 -2 -1 -5 4 8 1 -6 -2 2 6 4 -0 -2 -2 8 0 5 -1 7 8
2 4 2 3 2 0 -1 -2 -4 -6 -3 -2 -7 -5 -3 -3 -3 2 4 3 3 -1 -2 -2 -3 -0 -0 0 -2 4 -1 9 5 1 -4 2 4 7 9 10 6 3 2
Height
5691 5708 5715 5719 5727 5726 5740 5746 5756 5764 5770 5774 5778 5785 5791 5796 5801 5805 5809 5811 5815 5818 5821 5825 5828 5830 5832 5833 5835 5837 5838 5840 5840 5841 5840 5841 5841 5842 5841 5839 5839 5838 5838
5693 5701 5711 5716 5718 5725 5729 5735 5743 5754 5761 5767 5771 5775 5780 5784 5789 5794 5799 5803 5807 5811 5814 5816 5819 5821 5823 5826 5828 5829 5830 5832 5832 5832 5832 5833 5834 5833 5832 5832 5831 5830 5829
5696 5701 5707 5714 5717 5721 5723 5727 5737 5746 5753 5759 5765 5768 5773 5778 5782 5787 5792 5795 5798 5801 5804 5806 5810 5812 5815 5818 5819 5821 5822 5823 5823 5825 5825 5825 5825 5823 5823 5822 5821 5819 5818
5697 5703 5704 5708 5713 5718 5721 5725 5731 5734 5742 5749 5756 5761 5764 5768 5771 5775 5778 5782 5786 5790 5794 5797 5801 5804 5806 5808 5809 5810 5812 5813 5814 5814 5815 5814 5815 5814 5814 5812 5810 5809 5808
5694 5701 5703 5706 5708 5713 5719 5720 5725 5727 5734 5740 5747 5753 5757 5759 5763 5767 5771 5775 5778 5781 5784 5787 5790 5793 5795 5797 5799 5800 5801 5801 5802 5802 5802 5803 5803 5803 5802 5801 5799 5797 5797
5694 5699 5702 5703 5704 5707 5711 5716 5718 5722 5724 5731 5737 5743 5747 5750 5754 5757 5761 5764 5767 5770 5773 5776 5779 5782 5784 5785 5786 5787 5789 5790 5790 5791 5792 5792 5791 5791 5789 5788 5786 5785 5783
5695 5698 5700 5700 5702 5705 5707 5711 5713 5719 5720 5722 5727 5732 5736 5739 5744 5746 5750 5753 5756 5758 5761 5763 5766 5768 5771 5772 5774 5775 5777 5778 5779 5779 5779 5779 5779 5777 5775 5774 5774 5772 5771
5695 5696 5698 5699 5701 5703 5706 5707 5709 5713 5712 5713 5716 5721 5725 5729 5733 5735 5738 5741 5744 5746 5747 5749 5752 5755 5757 5758 5760 5762 5763 5765 5766 5766 5765 5764 5763 5763 5762 5761 5760 5758 5757
5695 5695 5695 5695 5698 5700 5703 5704 5705 5706 5707 5708 5709 5711 5713 5715 5720 5724 5727 5731 5732 5732 5734 5737 5739 5741 5743 5744 5745 5746 5748 5749 5751 5751 5751 5751 5750 5750 5749 5748 5746 5746 5743
5693 5694 5694 5693 5694 5695 5697 5697 5699 5699 5701 5701 5702 5703 5705 5707 5706 5712 5713 5716 5719 5719 5722 5723 5725 5727 5729 5730 5731 5733 5733 5733 5735 5736 5735 5735 5734 5733 5733 5733 5732 5729 5726
5691 5689 5691 5691 5689 5689 5689 5689 5689 5690 5691 5691 5691 5693 5697 5699 5700 5702 5700 5703 5704 5705 5707 5708 5710 5712 5713 5713 5713 5716 5716 5718 5718 5717 5718 5718 5718 5718 5716 5716 5715 5714 5711
5686 5688 5686 5684 5683 5682 5681 5682 5681 5680 5679 5678 5681 5682 5682 5682 5684 5684 5683 5685 5686 5689 5691 5692 5694 5696 5699 5698 5699 5701 5702 5701 5703 5703 5703 5702 5703 5702 5702 5701 5701 5699 5697
5681 5677 5677 5678 5676 5674 5673 5672 5671 5671 5670 5669 5669 5669 5669 5670 5671 5670 5672 5673 5675 5676 5677 5677 5681 5681 5684 5684 5687 5686 5687 5687 5689 5689 5688 5688 5688 5686 5685 5685 5684 5683 5680
5675 5672 5669 5667 5665 5667 5668 5665 5662 5661 5659 5659 5658 5657 5658 5658 5659 5659 5660 5662 5664 5665 5666 5666 5667 5668 5670 5671 5671 5671 5670 5671 5672 5674 5673 5671 5670 5670 5670 5669 5667 5664 5664
5664 5663 5661 5658 5656 5654 5652 5650 5651 5650 5648 5646 5645 5644 5643 5643 5643 5644 5644 5645 5646 5648 5649 5651 5652 5653 5656 5657 5656 5656 5658 5658 5656 5658 5657 5657 5655 5654 5653 5654 5651 5650 5648
5653 5651 5647 5644 5642 5640 5639 5638 5637 5635 5635 5635 5633 5631 5631 5630 5629 5629 5629 5629 5629 5630 5632 5633 5635 5637 5637 5638 5640 5642 5643 5640 5642 5643 5642 5644 5642 5639 5640 5641 5639 5640 5637
5640 5637 5633 5629 5626 5623 5623 5622 5620 5617 5617 5616 5615 5615 5614 5614 5614 5614 5613 5613 5614 5615 5616 5617 5618 5619 5621 5622 5622 5624 5626 5626 5626 5627 5628 5629 5629 5626 5626 5625 5623 5623 5624
5624 5620 5617 5613 5608 5604 5600 5599 5599 5600 5599 5598 5596 5595 5596 5597 5596 5597 5597 5597 5597 5597 5598 5600 5602 5604 5605 5605 5605 5606 5608 5610 5611 5610 5609 5610 5611 5611 5611 5610 5610 5608 5606
5608 5601 5595 5591 5588 5585 5583 5580 5576 5573 5572 5575 5577 5575 5574 5574 5574 5575 5575 5575 5577 5578 5579 5580 5582 5584 5586 5587 5588 5590 5591 5593 5595 5595 5596 5595 5595 5594 5594 5593 5595 5592 5593
5585 5581 5576 5569 5564 5561 5560 5558 5555 5553 5551 5548 5547 5548 5550 5551 5552 5552 5553 5555 5555 5557 5558 5561 5562 5564 5566 5568 5569 5571 5573 5576 5578 5580 5578 5582 5581 5580 5581 5579 5578 5579 5581
5564 5559 5552 5546 5541 5537 5534 5530 5527 5526 5525 5525 5524 5522 5520 5521 5524 5527 5528 5529 5532 5535 5537 5539 5541 5543 5546 5548 5549 5552 5555 5557 5559 5563 5563 5565 5566 5566 5566 5566 5566 5566 5567
5542 5534 5530 5522 5517 5510 5506 5500 5499 5498 5495 5493 5493 5492 5491 5491 5494 5497 5501 5501 5504 5508 5512 5515 5518 5523 5526 5528 5531 5534 5538 5538 5541 5545 5547 5549 5550 5551 5552 5553 5553 5554 5554
5520 5515 5507 5498 5490 5484 5479 5473 5468 5464 5462 5461 5460 5461 5461 5459 5460 5462 5468 5472 5476 5480 5485 5488 5493 5499 5501 5504 5509 5514 5517 5521 5524 5527 5530 5532 5534 5535 5536 5539 5540 5541 5541
5491 5485 5481 5476 5469 5463 5458 5452 5447 5440 5434 5431 5428 5426 5425 5426 5427 5430 5434 5436 5441 5447 5453 5459 5466 5472 5477 5482 5487 5495 5497 5503 5507 5510 5512 5515 5518 5519 5521 5524 5527 5528 5528
5467 5462 5458 5455 5451 5448 5443 5439 5435 5430 5423 5417 5411 5406 5403 5401 5401 5401 5403 5406 5409 5413 5418 5427 5433 5442 5451 5458 5462 5471 5477 5484 5489 5492 5495 5499 5502 5505 5507 5510 5512 5514 5515
5451 5448 5445 5442 5439 5434 5430 5425 5419 5414 5410 5405 5399 5394 5391 5387 5384 5383 5385 5386 5387 5387 5391 5396 5403 5413 5421 5428 5438 5448 5457 5463 5468 5473 5478 5483 5487 5491 5494 5495 5498 5500 5502